FW9075 Weather Reports


Display with metric or nautical units.
time (UTC)temp
F
wind
direction
speed
MPH
gust
MPH
rain 1hr
in
rain 24hr
in
rain mn
in
humidity
%
barometer
mb
20260505234006 53 29 2.0 6.0 0.00 0.04 0.00 75 1011.5
20260505233506 53 22 2.0 6.0 0.00 0.04 0.00 75 1011.5
20260505232005 53 15 4.0 7.0 0.00 0.05 0.00 74 1011.5
20260505231506 53 17 4.0 6.0 0.00 0.05 0.00 74 1011.6
20260505231006 53 14 4.0 7.0 0.00 0.05 0.00 74 1011.5
20260505230506 53 14 4.0 8.0 0.00 0.05 0.00 73 1011.5
20260505225505 53 19 2.0 7.0 0.00 0.06 0.06 73 1011.5
20260505225006 53 23 2.0 8.0 0.00 0.06 0.06 73 1011.5
20260505224506 53 11 4.0 8.0 0.00 0.06 0.06 73 1011.4
20260505224006 53 11 4.0 7.0 0.00 0.06 0.06 73 1011.4
20260505223010 54 22 4.0 7.0 0.00 0.06 0.06 72 1011.5
20260505222506 54 12 4.0 7.0 0.00 0.06 0.06 72 1011.5
20260505222006 54 10 4.0 7.0 0.00 0.06 0.06 72 1011.6
20260505221006 54 13 4.0 7.0 0.00 0.07 0.06 71 1011.5
20260505220505 54 6 4.0 7.0 0.00 0.07 0.06 71 1011.5
20260505220006 54 1 4.0 7.0 0.00 0.07 0.06 71 1011.5
20260505215006 54 2 4.0 8.0 0.00 0.07 0.06 70 1011.5
20260505214506 55 2 4.0 8.0 0.00 0.07 0.06 70 1011.5
20260505214005 55 359 4.0 7.0 0.00 0.07 0.06 70 1011.5
20260505213506 55 3 4.0 8.0 0.00 0.07 0.06 70 1011.5
20260505213006 55 9 4.0 8.0 0.00 0.07 0.06 69 1011.6
20260505212506 55 5 4.0 7.0 0.00 0.07 0.06 69 1011.5
20260505211506 55 2 4.0 10.0 0.00 0.07 0.06 68 1011.6
20260505210506 56 354 2.0 6.0 0.00 0.07 0.06 68 1011.5
20260505210006 56 8 4.0 6.0 0.00 0.07 0.06 68 1011.5
20260505205006 56 10 2.0 7.0 0.00 0.07 0.06 68 1011.5
20260505204505 56 15 2.0 7.0 0.00 0.07 0.06 68 1011.5
20260505203505 56 17 4.0 10.0 0.00 0.07 0.06 67 1011.4
20260505203006 56 15 4.0 7.0 0.00 0.07 0.06 67 1011.3
20260505202505 56 15 4.0 8.0 0.00 0.07 0.06 66 1011.3
20260505202006 56 15 4.0 9.0 0.00 0.07 0.06 66 1011.3
20260505200506 56 16 4.0 7.0 0.00 0.07 0.06 67 1011.2
20260505195506 57 16 4.0 7.0 0.00 0.07 0.06 67 1011.1
20260505195006 57 15 4.0 7.0 0.00 0.07 0.06 67 1011.1
20260505194505 57 13 4.0 7.0 0.00 0.07 0.06 67 1011.1
20260505194006 57 17 4.0 7.0 0.00 0.07 0.06 67 1011.0
20260505193506 57 25 4.0 7.0 0.00 0.07 0.06 67 1011.0
20260505193005 57 21 4.0 7.0 0.00 0.07 0.06 66 1011.0
20260505192506 57 15 4.0 7.0 0.00 0.07 0.06 66 1011.0
20260505191505 57 23 4.0 9.0 0.00 0.07 0.06 66 1010.9
20260505190506 58 17 4.0 7.0 0.00 0.07 0.06 66 1010.8
20260505190005 58 20 4.0 7.0 0.00 0.07 0.06 67 1010.8
20260505185005 58 20 4.0 7.0 0.00 0.07 0.06 66 1010.8
20260505184506 58 18 2.0 5.0 0.00 0.07 0.06 66 1010.7
20260505184005 58 21 4.0 8.0 0.00 0.07 0.06 66 1010.7
20260505183006 58 24 4.0 6.0 0.00 0.07 0.06 65 1010.6
20260505182506 58 17 4.0 7.0 0.00 0.07 0.06 65 1010.6
20260505182006 58 11 4.0 7.0 0.00 0.07 0.06 65 1010.5
20260505181506 58 17 2.0 6.0 0.00 0.07 0.06 65 1010.5
20260505181005 58 19 2.0 7.0 0.00 0.07 0.06 65 1010.5
20260505180505 58 19 2.0 7.0 0.00 0.07 0.06 65 1010.6
20260505180006 58 20 2.0 6.0 0.00 0.07 0.06 65 1010.6
20260505175505 58 16 4.0 6.0 0.00 0.07 0.06 65 1010.6
20260505175006 59 22 4.0 8.0 0.00 0.07 0.06 64 1010.6
20260505174505 59 30 4.0 8.0 0.00 0.07 0.06 64 1010.6
20260505174005 59 27 4.0 9.0 0.00 0.07 0.06 64 1010.7
20260505173506 59 29 4.0 10.0 0.00 0.07 0.06 63 1010.6
20260505173006 59 23 4.0 10.0 0.00 0.07 0.06 63 1010.6
20260505172505 60 12 5.0 7.0 0.00 0.07 0.06 63 1010.6
20260505172006 60 8 5.0 10.0 0.00 0.07 0.06 63 1010.7
20260505171506 60 3 5.0 10.0 0.00 0.07 0.06 63 1010.7
20260505171005 60 359 5.0 9.0 0.00 0.07 0.06 62 1010.7
20260505170006 60 7 5.0 10.0 0.00 0.07 0.06 62 1010.8
20260505165506 60 6 6.0 10.0 0.00 0.07 0.06 62 1010.8
20260505165006 60 5 5.0 10.0 0.00 0.07 0.06 61 1010.8
20260505164505 60 5 4.0 9.0 0.00 0.07 0.06 62 1010.8
20260505164005 60 7 4.0 9.0 0.00 0.07 0.06 61 1010.8
20260505163008 60 24 5.0 9.0 0.00 0.07 0.06 61 1010.7
20260505162506 60 22 4.0 9.0 0.00 0.07 0.06 62 1010.7
20260505162006 60 18 4.0 9.0 0.00 0.07 0.06 63 1010.8
20260505161506 60 17 4.0 9.0 0.00 0.07 0.06 63 1010.8
20260505161006 60 13 5.0 9.0 0.00 0.07 0.06 63 1010.7
20260505160506 60 13 5.0 9.0 0.00 0.07 0.06 62 1010.7
20260505153006 60 66 4.0 9.0 0.00 0.07 0.06 64 1010.8
20260505152505 60 57 2.0 6.0 0.00 0.07 0.06 64 1010.8
20260505151505 60 65 5.0 8.0 0.00 0.07 0.06 63 1011.0
20260505151005 60 55 4.0 8.0 0.00 0.07 0.06 63 1010.9
20260505150506 60 39 4.0 8.0 0.00 0.07 0.06 63 1010.9
20260505140506 61 8 5.0 10.0 0.00 0.07 0.06 61 1011.0
20260505125006 62 14 6.0 11.0 0.00 0.07 0.06 59 1011.3
20260505124506 63 10 5.0 11.0 0.00 0.07 0.06 59 1011.2
20260505124005 63 14 6.0 15.0 0.00 0.07 0.06 58 1011.2
20260505123506 64 32 6.0 15.0 0.00 0.07 0.06 56 1011.2
20260505122506 65 52 6.0 16.0 0.00 0.07 0.06 56 1011.2
20260505122005 66 49 6.0 16.0 0.00 0.07 0.06 57 1011.2
20260505121506 65 36 6.0 15.0 0.00 0.07 0.06 56 1011.2
20260505121005 65 61 6.0 16.0 0.00 0.07 0.06 59 1011.2
20260505120506 65 66 7.0 16.0 0.00 0.07 0.06 56 1011.2
20260505120006 65 54 7.0 15.0 0.00 0.07 0.06 57 1011.3
20260505115006 64 43 7.0 14.0 0.00 0.07 0.06 60 1011.3
20260505114506 64 42 7.0 14.0 0.00 0.07 0.06 60 1011.4
20260505114006 64 46 6.0 11.0 0.00 0.07 0.06 60 1011.3
20260505113506 64 45 6.0 11.0 0.00 0.07 0.06 60 1011.4
20260505113005 64 48 6.0 13.0 0.00 0.07 0.06 59 1011.4
20260505112505 64 55 6.0 13.0 0.00 0.07 0.06 60 1011.5
20260505112006 64 53 5.0 10.0 0.00 0.07 0.06 60 1011.5
20260505111005 63 48 7.0 15.0 0.00 0.07 0.06 61 1011.6
20260505101006 60 60 7.0 15.0 0.00 0.07 0.06 70 1012.1
20260505100505 60 52 7.0 14.0 0.00 0.07 0.06 73 1012.0
20260505100005 59 48 7.0 14.0 0.00 0.07 0.06 73 1012.1
20260505095506 59 46 6.0 17.0 0.00 0.07 0.06 71 1012.1
20260505094505 59 48 6.0 17.0 0.00 0.07 0.06 74 1012.2
20260505094005 59 37 6.0 17.0 0.00 0.07 0.06 77 1012.2
20260505093505 58 46 7.0 15.0 0.00 0.07 0.06 77 1012.3
20260505093006 57 50 8.0 15.0 0.00 0.07 0.06 77 1012.3
20260505092505 57 40 7.0 14.0 0.00 0.07 0.06 76 1012.3
20260505091506 56 13 6.0 11.0 0.00 0.07 0.06 79 1012.3
20260505091007 56 11 6.0 13.0 0.00 0.07 0.06 78 1012.3
20260505090506 56 11 6.0 13.0 0.00 0.07 0.06 78 1012.3
20260505090006 56 22 5.0 11.0 0.00 0.07 0.06 79 1012.3
20260505085006 56 35 6.0 15.0 0.00 0.07 0.06 79 1012.3
20260505084006 56 35 6.0 13.0 0.00 0.07 0.06 81 1012.3
20260505083505 56 27 6.0 13.0 0.00 0.07 0.06 80 1012.3
20260505083005 56 25 6.0 10.0 0.00 0.07 0.06 81 1012.3
20260505082506 56 29 6.0 11.0 0.00 0.07 0.06 82 1012.3
20260505082005 55 35 6.0 14.0 0.00 0.07 0.06 83 1012.4
20260505081506 55 36 4.0 14.0 0.00 0.07 0.06 85 1012.5
20260505081006 55 24 4.0 7.0 0.00 0.07 0.06 87 1012.5
20260505080505 54 22 5.0 11.0 0.00 0.07 0.06 87 1012.6
20260505080005 54 25 5.0 11.0 0.00 0.07 0.06 87 1012.6
20260505075006 53 24 5.0 11.0 0.00 0.07 0.06 88 1012.7
20260505074506 53 17 5.0 11.0 0.00 0.07 0.06 88 1012.6
20260505074005 53 12 5.0 10.0 0.00 0.07 0.06 88 1012.5
20260505073506 53 11 5.0 11.0 0.00 0.07 0.06 88 1012.5
20260505073006 53 19 5.0 11.0 0.00 0.07 0.06 88 1012.5
20260505072505 53 30 5.0 10.0 0.00 0.07 0.06 89 1012.5
20260505072005 53 26 5.0 10.0 0.00 0.07 0.06 90 1012.5
20260505071006 52 24 6.0 10.0 0.00 0.07 0.06 90 1012.6
20260505070006 52 11 4.0 8.0 0.00 0.07 0.06 93 1012.7
20260505065506 51 14 4.0 8.0 0.00 0.07 0.06 93 1012.6
20260505065006 51 22 5.0 9.0 0.00 0.07 0.06 94 1012.7
20260505064005 50 359 4.0 7.0 0.00 0.07 0.06 95 1012.7
20260505063506 50 359 2.0 7.0 0.00 0.07 0.06 95 1012.6
20260505063006 49 357 2.0 7.0 0.00 0.07 0.06 95 1012.6
20260505062506 49 2 2.0 6.0 0.00 0.07 0.06 95 1012.6
20260505061505 49 17 2.0 6.0 0.00 0.07 0.06 95 1012.5
20260505061005 49 31 2.0 6.0 0.00 0.07 0.06 95 1012.5
20260505060506 49 34 1.0 6.0 0.00 0.07 0.06 95 1012.5
20260505060006 49 45 2.0 5.0 0.00 0.07 0.06 95 1012.6
20260505055506 49 43 2.0 5.0 0.00 0.07 0.06 96 1012.6
20260505054505 48 34 1.0 5.0 0.00 0.07 0.06 96 1012.5
20260505054005 48 34 2.0 6.0 0.00 0.07 0.06 96 1012.5
20260505053505 48 19 2.0 6.0 0.00 0.07 0.06 96 1012.4
20260505052505 48 12 2.0 7.0 0.00 0.07 0.06 95 1012.3
20260505052005 48 13 4.0 6.0 0.00 0.07 0.06 95 1012.3
20260505051505 48 16 4.0 7.0 0.00 0.07 0.06 95 1012.4
20260505050505 48 11 4.0 8.0 0.00 0.07 0.06 95 1012.4
20260505041505 49 39 1.0 5.0 0.00 0.07 0.06 95 1012.3
20260505041006 49 36 1.0 5.0 0.00 0.07 0.06 95 1012.4
20260505040505 50 33 2.0 5.0 0.00 0.07 0.06 95 1012.4
20260505040006 50 30 2.0 5.0 0.00 0.07 0.06 95 1012.4
20260505035505 50 27 1.0 5.0 0.00 0.07 0.06 95 1012.5
20260505035006 50 21 1.0 3.0 0.00 0.07 0.06 95 1012.5
20260505034506 50 15 1.0 2.0 0.00 0.07 0.06 95 1012.5
20260505034006 50 0 0.0 2.0 0.00 0.07 0.06 95 1012.6
20260505033506 50 0 0.0 2.0 0.00 0.07 0.06 95 1012.7
20260505032505 51 15 1.0 2.0 0.00 0.07 0.06 95 1012.7
20260505032006 51 0 0.0 2.0 0.00 0.07 0.06 95 1012.7
20260505031506 51 0 0.0 2.0 0.00 0.07 0.06 95 1012.7
20260505030506 51 0 0.0 1.0 0.00 0.07 0.06 95 1012.6
20260505030005 51 0 0.0 1.0 0.00 0.07 0.06 95 1012.7
20260505025506 51 0 0.0 2.0 0.00 0.07 0.06 95 1012.7
20260505025006 51 0 0.0 2.0 0.00 0.07 0.06 95 1012.7
20260505024506 51 15 1.0 2.0 0.00 0.07 0.06 95 1012.7
20260505024006 51 16 1.0 2.0 0.00 0.07 0.06 95 1012.7
20260505023506 51 10 1.0 3.0 0.00 0.07 0.06 95 1012.6
20260505022505 52 0 0.0 2.0 0.00 0.07 0.06 95 1012.6
20260505021006 52 356 1.0 2.0 0.01 0.07 0.06 95 1012.7
20260505015506 52 0 0.0 1.0 0.02 0.07 0.06 95 1012.6
20260505015006 53 0 0.0 2.0 0.02 0.07 0.06 95 1012.7
20260505014506 53 0 0.0 2.0 0.02 0.07 0.06 95 1012.7
20260505014006 53 0 0.0 2.0 0.02 0.07 0.06 95 1012.7
20260505013505 53 0 0.0 1.0 0.02 0.07 0.06 95 1012.8
20260505013005 53 0 0.0 2.0 0.02 0.07 0.06 95 1012.9
20260505012507 53 0 0.0 2.0 0.02 0.07 0.06 95 1013.0
20260505012006 53 23 1.0 2.0 0.02 0.06 0.05 95 1012.9
20260505011005 53 18 1.0 3.0 0.02 0.06 0.05 94 1013.0
20260505010505 53 22 1.0 5.0 0.02 0.06 0.04 94 1013.1
20260505010006 53 29 1.0 5.0 0.02 0.06 0.04 94 1013.1
20260505005506 53 25 1.0 5.0 0.02 0.06 0.04 94 1013.1
20260505005006 53 11 1.0 5.0 0.01 0.05 0.03 94 1013.1
20260505003506 53 5 1.0 3.0 0.02 0.05 0.03 94 1013.2
20260505002506 53 30 1.0 2.0 0.02 0.05 0.03 94 1013.3
20260505002005 53 28 1.0 2.0 0.02 0.04 0.02 94 1013.2
20260505001505 53 28 1.0 2.0 0.02 0.04 0.02 94 1013.3
20260505001006 53 28 1.0 2.0 0.02 0.04 0.02 94 1013.3
20260505000506 53 16 1.0 2.0 0.02 0.04 0.02 94 1013.3
20260504235506 53 10 1.0 3.0 0.02 0.04 0.02 94 1013.4
20260504235005 53 23 1.0 3.0 0.02 0.03 0.02 94 1013.4
20260504234506 53 22 2.0 5.0 0.02 0.03 0.02 93 1013.3